Weather History for Cleveland Burke, OH

Change the Weather History Date:

Friday, November 23, 2012

  Actual Average Record
Temperature  
Mean Temperature 44 °F -  
Max Temperature 55 °F 46 °F 72 °F (1999)
Min Temperature 32 °F 35 °F 21 °F (2000)
Degree Days  
Heating Degree Days 22    
Growing Degree Days 0 (Base 50)    
Moisture  
Dew Point 34 °F    
Average Humidity 74    
Maximum Humidity 93    
Minimum Humidity 51    
Precipitation  
Precipitation 0.07 in - - ()
Sea Level Pressure  
Sea Level Pressure 29.88 in    
Wind  
Wind Speed 21 mph (WSW)    
Max Wind Speed 33 mph    
Max Gust Speed 44 mph    
Visibility 8 miles    
Events Fog , Rain , Snow    
Averages and records for this station are not official NWS values.
T = Trace of Precipitation, MM = Missing Value Source: NWS Daily Summary

Daily Weather History Graph

Daily Weather History Graph

Search for Another Location

Airport:

Trip Planner

Search our weather history database for the weather conditions in past years. The results will help you decide how hot, cold, wet, or windy it might be!

Date:

Astronomy

Nov. 23, 2012 Rise Set
Actual Time 7:25 AM EST 5:00 PM EST
Civil Twilight 6:55 AM EST 5:31 PM EST
Nautical Twilight 6:21 AM EST 6:05 PM EST
Astronomical Twilight 5:47 AM EST 6:38 PM EST
Moon 2:17 PM EST 2:40 AM EST
Length of Visible Light 10h 36m
Length of Day
9h 35m
Waxing Gibbous, 79% of the Moon is Illuminated
Nov 23
Waxing Gibbous
Nov 28
Full
Dec 6
Last Quarter
Dec 13
New
Dec 20
First Quarter

Hourly Weather History & Observations

Time (EST) Temp. Windchill Dew Point Humidity Pressure Visibility Wind Dir Wind Speed Gust Speed Precip Events Conditions
12:53 AM 55.9 °F - 37.9 °F 51% 29.88 in 10.0 mi South 17.3 mph 24.2 mph N/A   Partly Cloudy
1:53 AM 55.0 °F - 37.9 °F 53% 29.86 in 10.0 mi South 17.3 mph 25.3 mph N/A   Partly Cloudy
2:53 AM 55.0 °F - 37.9 °F 53% 29.84 in 10.0 mi SSW 18.4 mph 28.8 mph N/A   Clear
3:53 AM 55.0 °F - 39.0 °F 55% 29.82 in 10.0 mi South 17.3 mph 24.2 mph N/A   Partly Cloudy
4:53 AM 54.0 °F - 41.0 °F 62% 29.81 in 10.0 mi South 18.4 mph 28.8 mph N/A   Overcast
5:15 AM 53.6 °F - 42.8 °F 67% 29.80 in 10.0 mi SSW 16.1 mph 27.6 mph 0.00 in   Overcast
5:27 AM 51.8 °F - 42.8 °F 71% 29.79 in 10.0 mi SSW 17.3 mph 23.0 mph 0.00 in Rain Light Rain
5:53 AM 51.1 °F - 44.1 °F 77% 29.79 in 10.0 mi SSW 12.7 mph 20.7 mph 0.00 in Rain Light Rain
6:04 AM 51.8 °F - 44.6 °F 76% 29.79 in 10.0 mi South 16.1 mph 23.0 mph N/A   Overcast
7:53 AM 53.1 °F - 46.9 °F 80% 29.79 in 10.0 mi SSW 19.6 mph 27.6 mph N/A   Overcast
8:12 AM 53.6 °F - 46.4 °F 77% 29.79 in 10.0 mi SW 15.0 mph 23.0 mph N/A   Mostly Cloudy
8:53 AM 52.0 °F - 46.0 °F 80% 29.79 in 10.0 mi WSW 16.1 mph 26.5 mph N/A   Mostly Cloudy
9:11 AM 53.6 °F - 44.6 °F 72% 29.79 in 10.0 mi WSW 18.4 mph 25.3 mph N/A   Mostly Cloudy
9:21 AM 53.6 °F - 44.6 °F 72% 29.79 in 10.0 mi WSW 17.3 mph - N/A   Scattered Clouds
9:53 AM 48.9 °F - 41.0 °F 74% 29.81 in 10.0 mi West 28.8 mph 34.5 mph N/A   Clear
10:53 AM 45.0 °F 36.0 °F 39.0 °F 80% 29.82 in 9.0 mi West 25.3 mph 34.5 mph N/A   Partly Cloudy
11:53 AM 46.9 °F - 35.1 °F 63% 29.81 in 10.0 mi WSW 19.6 mph - N/A   Clear
12:53 PM 43.0 °F 33.8 °F 33.1 °F 68% 29.83 in 10.0 mi WSW 23.0 mph 33.4 mph N/A   Mostly Cloudy
1:23 PM 42.8 °F 33.1 °F 30.2 °F 61% 29.82 in 10.0 mi WSW 25.3 mph 34.5 mph N/A   Overcast
1:53 PM 42.1 °F 31.7 °F 30.0 °F 62% 29.83 in 10.0 mi WSW 27.6 mph 35.7 mph N/A   Overcast
2:28 PM 39.2 °F 28.3 °F 30.2 °F 70% 29.83 in 10.0 mi WSW 25.3 mph 36.8 mph N/A   Overcast
2:53 PM 39.9 °F 28.6 °F 30.9 °F 70% 29.85 in 10.0 mi WSW 28.8 mph 36.8 mph N/A   Overcast
3:53 PM 37.9 °F 27.3 °F 28.9 °F 70% 29.88 in 10.0 mi WSW 21.9 mph 31.1 mph N/A   Overcast
4:09 PM 37.4 °F 26.1 °F 28.4 °F 70% 29.89 in 10.0 mi WSW 24.2 mph 36.8 mph N/A   Overcast
4:25 PM 35.6 °F 22.3 °F 32.0 °F 87% 29.89 in 1.8 mi West 31.1 mph 39.1 mph 0.01 in Snow Light Snow
4:29 PM 35.6 °F 22.7 °F 32.0 °F 87% 29.89 in 2.5 mi West 28.8 mph 38.0 mph 0.01 in Snow Light Snow
4:37 PM 35.6 °F 22.7 °F 32.0 °F 87% 29.90 in 7.0 mi West 28.8 mph 39.1 mph 0.01 in Snow Light Snow
4:44 PM 35.6 °F 22.3 °F 30.2 °F 81% 29.90 in 7.0 mi West 31.1 mph 39.1 mph 0.01 in   Overcast
4:53 PM 36.0 °F 22.4 °F 28.9 °F 76% 29.91 in 9.0 mi West 33.4 mph 43.7 mph 0.01 in   Overcast
5:02 PM 35.6 °F 22.1 °F 28.4 °F 75% 29.90 in 10.0 mi West 32.2 mph 42.6 mph 0.00 in   Overcast
5:53 PM 36.0 °F 23.2 °F 27.0 °F 70% 29.94 in 7.0 mi WSW 28.8 mph 38.0 mph 0.00 in Snow Light Snow
6:53 PM 33.1 °F 19.6 °F 30.0 °F 89% 29.97 in 0.8 mi West 27.6 mph 39.1 mph 0.01 in Snow Light Snow
7:03 PM 32.0 °F 19.8 °F 30.2 °F 93% 29.96 in 0.5 mi WSW 20.7 mph 31.1 mph 0.02 in Fog , Snow Snow
7:14 PM 33.8 °F 20.8 °F 30.2 °F 87% 29.96 in 1.2 mi West 26.5 mph 40.3 mph 0.03 in Snow Light Snow
7:23 PM 33.8 °F 22.2 °F 30.2 °F 87% 29.96 in 2.0 mi WSW 20.7 mph 31.1 mph 0.04 in Snow Light Snow
7:26 PM 33.8 °F 21.6 °F 28.4 °F 81% 29.97 in 3.0 mi WSW 23.0 mph 28.8 mph 0.04 in Snow Light Snow
7:53 PM 33.1 °F 21.2 °F 28.9 °F 85% 29.98 in 5.0 mi WSW 20.7 mph 29.9 mph 0.04 in Snow Light Snow
8:10 PM 33.8 °F 21.9 °F 28.4 °F 81% 29.97 in 6.0 mi WSW 21.9 mph 31.1 mph 0.00 in Snow Light Snow
8:53 PM 32.0 °F 18.9 °F 27.0 °F 82% 30.00 in 5.0 mi WSW 24.2 mph 33.4 mph 0.01 in Snow Light Snow
9:53 PM 33.1 °F 21.2 °F 27.0 °F 78% 29.99 in 10.0 mi WSW 20.7 mph 28.8 mph 0.00 in Snow Light Snow
10:53 PM 33.1 °F 20.3 °F 26.1 °F 75% 30.00 in 10.0 mi WSW 24.2 mph 29.9 mph 0.00 in   Overcast
11:53 PM 34.0 °F 22.4 °F 28.0 °F 79% 29.99 in 10.0 mi WSW 20.7 mph 38.0 mph 0.00 in   Overcast